Courier 1B - Orbit

View from above orbital plane
View from above orbital plane
View from above satellite
View from above satellite

Ground track
Ground track

The orbit data is extracted from the following two-line orbital elements,

1 00058U 60013A   13140.44853595  .00000140  00000-0  79704-4 0  3951
2 00058 028.3280 248.5700 0165048 268.5142 089.6492 13.46260084590530
Epoch (UTC): 20 May 2013 10:45:53
Eccentricity: 0.0165048
inclination: 28.3280°
perigee height: 963 km
apogee height: 1209 km
right ascension of ascending node: 248.5700°
argument of perigee: 268.5142°
revolutions per day: 13.46260084
mean anomaly at epoch: 89.6492°
orbit number at epoch: 59053

The dashed part of the orbit path shows where the satellite is in the earth's shadow,  

Developed and maintained by Chris Peat, Heavens-Above GmbH. Please read the updated FAQ before sending e-mail. Imprint. DLR